This is the latest recevied weather packets stored in our database for station/object K4DFD-13. If no packets are shown the sender has not sent any weather packets the latest 10 day(s).
| Time | Temp. | Humidity | Pressure | Rain* | Wind** | Luminosity | Snow |
|---|---|---|---|---|---|---|---|
| 1777227524 | 21.11° C | 59% | 1015.6 hPa | 0 mm | - | - | - |
| 1777227223 | 21.11° C | 58% | 1015.7 hPa | 0 mm | - | - | - |
| 1777226923 | 21.67° C | 56% | 1015.7 hPa | 0 mm | - | - | - |
| 1777226622 | 21.11° C | 57% | 1015.8 hPa | 0 mm | - | - | - |
| 1777226322 | 21.67° C | 57% | 1015.8 hPa | 0 mm | - | - | - |
| 1777226022 | 21.11° C | 56% | 1015.6 hPa | 0 mm | - | - | - |
| 1777225721 | 21.11° C | 55% | 1015.7 hPa | 0 mm | - | - | - |
| 1777225421 | 20.56° C | 59% | 1015.7 hPa | 0 mm | - | - | - |
| 1777225120 | 20.56° C | 59% | 1015.7 hPa | 0 mm | - | - | - |
| 1777224820 | 20.56° C | 56% | 1015.7 hPa | 0 mm | - | - | - |
| 1777224519 | 20.56° C | 57% | 1015.7 hPa | 0 mm | - | - | - |
| 1777224219 | 20.56° C | 58% | 1015.8 hPa | 0 mm | - | - | - |
| 1777223919 | 21.11° C | 57% | 1015.7 hPa | 0 mm | - | - | - |
| 1777223618 | 21.11° C | 58% | 1015.6 hPa | 0 mm | - | - | - |
| 1777223318 | 20.56° C | 57% | 1015.6 hPa | 0 mm | - | - | - |
| 1777223018 | 20° C | 57% | 1015.7 hPa | 0 mm | - | - | - |
| 1777222717 | 20° C | 58% | 1015.8 hPa | 0 mm | - | - | - |
| 1777222417 | 20° C | 58% | 1015.7 hPa | 0 mm | - | - | - |
| 1777222116 | 19.44° C | 58% | 1015.8 hPa | 0 mm | - | - | - |
| 1777221816 | 19.44° C | 58% | 1016 hPa | 0 mm | - | - | - |
| 1777221516 | 20° C | 55% | 1016.2 hPa | 0 mm | - | - | - |
| 1777221215 | 20° C | 57% | 1016.2 hPa | 0 mm | - | - | - |
| 1777220915 | 19.44° C | 59% | 1016.1 hPa | 0 mm | - | - | - |
| 1777220615 | 19.44° C | 57% | 1016.1 hPa | 0 mm | - | - | - |
| 1777220315 | 18.89° C | 59% | 1016.2 hPa | 0 mm | - | - | - |
* Rain latest hour (hover to see other rain measurements)
** Current wind speed in m/s (hover to see current wind gust speed)